Regional Weather Roundup
Issued by NWS Wakefield, VA

Home | Current Version | Previous Version | Text Only | Print | Product List | Glossary On
Versions: 1 2 3 4 5 6 7 8 9 10 11 12 13 14 15 16 17 18 19 20 21 22 23 24 25 26 27 28 29 30 31 32 33 34 35 36 37 38 39 40 41 42 43 44 45 46 47 48 49 50
000
ASUS41 KAKQ 220910
RWRAKQ

REGIONAL WEATHER ROUNDUP
NATIONAL WEATHER SERVICE WAKEFIELD VA
400 AM EST MON DEC 22 2014

Note: "fair" indicates few or no clouds below 12,000 feet with no
significant weather and/or obstructions to visibility. * = Denotes
station may not report precipitation (e.g., rain,snow,etc.),
thunder or fog.

VAZ042-051-052>054-056-221000-
NORTHERN VIRGINIA

CITY           SKY/WX    TMP DP  RH WIND       PRES   REMARKS
WASH NATIONAL  CLOUDY    33  24  69 NE6       30.31F
DULLES         CLOUDY    26  22  84 NW3       30.29F
FORT BELVOIR   CLOUDY    30  26  87 CALM      30.30F
QUANTICO       CLOUDY    35  27  72 NE8       30.31F
FREDERICKSBRG* CLOUDY    33  29  85 NE3       30.27F
STAFFORD*      CLOUDY    32  31  98 CALM      30.31F
WARRENTON      CLOUDY    31  30  97 NE3       30.28F
CULPEPER*      CLOUDY    30  28  93 CALM      30.29S
MANASSAS*      CLOUDY    28  28 100 N6        30.29F
LEESBURG*      CLOUDY    28  28 100 CALM      30.29F
WINCHESTER     CLOUDY    28  21  74 NE3       30.25F
FRONT ROYAL*   CLOUDY    28  23  80 NW3       30.24F
LURAY*         CLOUDY    32  32 100 CALM      30.23F
$$

VAZ048-049-060>072-079>083-221000-
CENTRAL AND SOUTH CENTRAL VIRGINIA

CITY           SKY/WX    TMP DP  RH WIND       PRES   REMARKS
RICHMOND       CLOUDY    37  28  70 NE7       30.25F
CHESTERFIELD*  CLOUDY    37  19  48 NE5       30.26F
PETERSBURG*    CLOUDY    38  32  78 NE6       30.25F
HANOVER        CLOUDY    34  28  79 CALM      30.27F
TAPPAHANNOCK*  CLOUDY    35  28  76 CALM      30.28S
QUINTON*       CLOUDY    35  30  83 CALM      30.25F
CHARLOTTSVILLE CLOUDY    33  25  72 NE5       30.24F
GORDONSVILLE*  CLOUDY    32  28  84 CALM      30.25F
ORANGE*        CLOUDY    32  30  93 CALM      30.27F
LOUISA*        CLOUDY    34  28  80 N3        30.24F
BUMPASS*       CLOUDY    32  28  85 CALM      30.26F
FARMVILLE*     CLOUDY    38  31  74 N3        30.23F
CREWE*         CLOUDY    36  29  78 CALM      30.23F
FORT PICKETT*  CLOUDY    35  31  84 NE5       30.23S
CHASE CITY*    CLOUDY    38  32  79 NE3       30.21F
CLARKSVILLE*   CLOUDY    36  32  87 NE3       30.20F
SOUTH HILL*    CLOUDY    34  31  88 N6        30.28S
LAWRENCEVILLE* CLOUDY    36  31  83 N3        30.23S
EMPORIA*       MIX PCPN  36  32  87 NW8       30.25S
$$

VAZ088>098-221000-
SOUTHEAST VIRGINIA

CITY           SKY/WX    TMP DP  RH WIND       PRES   REMARKS
NORFOLK        CLOUDY    42  36  79 NE13      30.21F
VIRGINIA BEACH CLOUDY    44  36  73 NE12      30.21F
NORFOLK NAVAL  CLOUDY    44  35  70 NE15      30.23F
WEST POINT*    CLOUDY    39  31  72 CALM      30.29S
SALUDA*        CLOUDY    37  32  81 NE5       30.26S
NEWPORT NEWS   CLOUDY    43  33  68 MISG      30.24F
LANGLEY AFB    CLOUDY    40  35  79 NE15      30.24F HAZE
FORT EUSTIS    CLOUDY    40  33  74 NE5       30.22F
WILLIAMSBURG*  CLOUDY    41  36  81 NE3       30.25F
HR EXEC AP*    CLOUDY    41  34  75 NE12      30.24F
FRANKLIN*      CLOUDY    37  34  87 NE7       30.21F
WAKEFIELD      CLOUDY    38  31  76 N6        30.23F
$$

VAZ020-022-025-037-045-221000-
WEST CENTRAL AND SOUTHWEST VIRGINIA

CITY           SKY/WX    TMP DP  RH WIND       PRES   REMARKS
STAUNTON*      CLOUDY    32  27  82 CALM      30.23F
WAYNESBORO*    CLOUDY    32  25  75 SE6       30.19F
HOT SPRINGS VA CLOUDY    29  29 100 SE7       30.06F
LYNCHBURG      CLOUDY    35  28  75 N6        30.23S
DANVILLE       LGT RAIN  37  31  78 NE7       30.20F
SOUTH BOSTON*  CLOUDY    35  31  86 NE3       30.22F
MARTINSVILLE   CLOUDY    38  33  84 NE3       30.21F
ROANOKE        CLOUDY    37  28  70 SE5       30.22F
BLACKSBURG     CLOUDY    34  29  80 E5        30.18F
DUBLIN*        CLOUDY    37  33  84 E3        30.16F
MARION*        CLOUDY    37  34  90 E9        30.13F FOG
HILLSVILLE*    CLOUDY    33  32  93 E3        30.12F
RICHLANDS*     CLOUDY    38  33  82 SE10      30.05F
WISE*          CLOUDY    37  34  87 SE3       30.05F
ABINGDON*      CLOUDY    42  37  82 E9        30.07F
$$

MDZ021>025-VAZ099-100-221000-
SOUTHERN MARYLAND AND THE DELMARVA PENINSULA

CITY           SKY/WX    TMP DP  RH WIND       PRES   REMARKS
PATUXENT RIVER CLOUDY    34  28  79 E9        30.28F
BAY BRIDGE APT   N/A     32  28  86 CALM      30.31F
LEONARDTOWN    CLOUDY    32  28  86 CALM      30.29F
DOVER          MOCLDY    27  26  99 N2        30.29F
GEORGETOWN     CLOUDY    28  24  85 N3        30.31F
EASTON         CLOUDY    30  27  90 E3        30.33F
CAMBRIDGE      CLOUDY    32  27  80 NE6       30.29F
SALISBURY      CLOUDY    33  26  75 NE5       30.29F
OCEAN CITY     MOCLDY    30  27  88 N5        30.29F
WALLOPS ISLAND CLOUDY    31  27  85 N8        30.29F
ACCOMACK*      CLOUDY    34  27  75 NE6       30.26F
$$

NCZ012>017-030>032-221000-
NORTH CENTRAL AND EASTERN NORTH CAROLINA

CITY           SKY/WX    TMP DP  RH WIND       PRES   REMARKS
ROANOKE RAPIDS RAIN      36  32  87 N9        30.20F
RALEIGH        LGT RAIN  37  33  85 NE7       30.15F
ELIZABETH CITY LGT RAIN  48  40  73 NE15      30.17F
AHOSKIE*       LGT RAIN  38  34  85 N9        30.19F
EDENTON*       CLOUDY    42  40  93 NE8       30.16F FOG
CURRITUCK*     CLOUDY    45  38  77 NE12G18   30.19F
KILL DEVIL HLS DRIZZLE   47  46  93 NE13G18   30.14F
MANTEO         CLOUDY    47  45  91 NE17G25   30.15F
CAPE HATTERAS  LGT RAIN  52  52 100 NE10G20   30.10F FOG
TARBORO*       RAIN      39  37  93 N7        30.18F
GOLDSBORO      LGT RAIN  39  39  99 VRB1      30.11F
WASHINGTON     CLOUDY    41  39  95 NE8       30.13F
GREENVILLE     RAIN      39  37  93 NE12      30.15F
NEW BERN       LGT RAIN  47  43  86 NE9       30.10F
WILMINGTON     LGT RAIN  45  44  97 N7        30.07F
$$

VAZ048-221000-
ELSEWHERE

CITY           SKY/WX    TMP DP  RH WIND       PRES   REMARKS
HARRISBURG PA  PTCLDY    21  18  88 CALM      30.31F FOG
BALTIMORE      MOCLDY    27  22  81 CALM      30.30F
ANNAPOLIS      CLOUDY    32  27  81 N3        30.31F HAZE
ANDREWS AFB    CLOUDY    29  25  83 NE6       30.29F
PHILADELPHIA   MOCLDY    29  22  75 NW5       30.33F
HENDERSON NC   DRIZZLE   35  32  88 NE6       30.19F
GREENSBORO     LGT RAIN  37  34  89 NE9       30.15F FOG
ROCKY MOUNT    RAIN      38  36  92 N12       30.16F FOG
$$

VAZ100-221000-
MARINE

STATION/POSITION TIME  TEMP    WIND        PRES    WAVE   SWELL
                       AIR SEA DIR/SP/G            HT/PER HT/PER
                 (UTC) (F)     (DEG/KT/KT) (MB)    (FT/S) (FT/S)
CAPE MAY NJ      0900   31 42   60/  1/  3 1026.3F
LEWES DE         0900   37 42   60/  8/  9 1026.3F
15NM E FENWICK I 0900   41 45              1025.8F   2/ 9
OCEAN-CITY-INLET 0900   35 41   10/  4/  5 1025.5F
WACHAPREAGUE VA  0900   35 40   20/  6/  9 1024.5F
THOMAS POINT MD  0900   34 41   50/  9/ 10 1027.1F
GOOSES REEF MD   0900   35     VRB 10/ 12  1025.0F
COVE POINT MD    0900   33      90/ 13/ 15 1025.4F
SOLOMONS ISLAND  0900      42                N/A
BISHOPS HEAD MD  0900   34 38   40/  8/ 11 1025.1F
POTOMAC MD       0900   38      70/ 14/ 16 1024.1F
CAMBRIDGE MD     0900   33 40   70/  7/  8 1025.9F
LEWISETTA VA     0900   37 41   70/ 11/ 13 1024.8F
RAPPAHANNOCK LGT 0900           30/ 16/ 17 1025.1R
STINGRAY PT      0900   40      60/ 14/ 16 1025.0S
YORK RVR RNG VA  0900   40      60/ 16/ 17 1023.6F
YORKTOWN VA      0900   40 45   50/ 11/ 13 1024.0F
JAMESTOWN VA     0900   38      50/  4/  6   N/A
DOMINION TERM VA 0900   41      40/  7/ 12 1023.7F
KIPTOPEKE VA     0900      48   60/ 10/ 13   N/A
CHES BAY BRIDGE  0900   41 45   30/ 18/ 20 1022.8F
CAPE HENRY VA    0900   43      40/ 21/ 23 1022.0F
CHESAPEAKE LGHT  0800   44      40/ 22/ 23 1024.2F
WILLOUBY STN VA  0900   41      40/ 16/ 18 1024.0F
S CRANEY ISL VA  0900           40/ 12/ 16 1023.2F
CAPE HENRY BUOY  0900      49                N/A     4/ 4
1ST LANDING BUOY 0900   41      40/ 16/ 19 1023.0F
CAPE CHARLES BUO 0900      46                N/A     3/ 4   2/10
64NM E OF VA BCH 0900   51 53   40/ 19/ 23 1021.8F   3/ 4   2/10
DUCK PIER NC     0900   47 46   30/ 24/ 26 1020.8F
44100 DUCK FRF   0800      52                N/A     5/ 5
44056 DUCK FRF   0900      46                N/A     5/ 5
OREGON INLET NC  0900   49 48   30/ 15/ 19 1020.2F
HATTERAS NC      0900   51 49   50/  9/ 15 1019.6F
DIAMOND SHLS NC  0900   62                 1018.6F
CAPE LOOKOUT NC  0800   50      30/ 21/ 24 1018.8F
$$



USA.gov is the U.S. government's official web portal to all federal, state and local government web resources and services.